This demonstration page uses our WeatherBlox Daily Observations layout. Learn more.

Left ArrowRight Arrow

Hourly Observations for February 12, 2015

Temp ( °F °C ) Dew Point ( °F °C ) Humidity (%) Winds ( mph kmh ) Pressure ( in mb ) Visibility ( mi km ) Precip ( " mm )
12:53 am 00:53 Cloudy 32 undefined 23 -5 69 69 W 9 15 30.06 1018 10 16.0934 N/A
1:30 am 01:30 Cloudy 31 -0.6 21 -6.1 67 67 WNW 13 20 30.12 1020 10 16.0934 N/A
1:53 am 01:53 Cloudy 31 -0.6 20 -6.7 64 64 WNW 14 22 30.06 1018 10 16.0934 N/A
2:53 am 02:53 Cloudy 29 -1.7 19 -7.2 66 66 WNW 9 15 30.06 1018 10 16.0934 N/A
3:53 am 03:53 Cloudy 29 -1.7 17 -8.3 61 61 WNW 12 19 30.06 1018 10 16.0934 N/A
4:53 am 04:53 Cloudy 28 -2.2 17 -8.3 63 63 WNW 10 17 30.06 1018 10 16.0934 N/A
5:21 am 05:21 Cloudy 27 -2.8 15 -9.4 61 61 WNW 12 19 30.12 1020 10 16.0934 N/A
5:53 am 05:53 Cloudy 26 -3.3 16 -8.9 66 66 WNW 9 15 30.08 1019 10 16.0934 N/A
6:53 am 06:53 Cloudy with Light Snow 25 -3.9 17 -8.3 72 72 WNW 15 24 30.11 1020 7 11.26538 N/A
7:53 am 07:53 Cloudy 24 -4.4 16 -8.9 71 71 WNW 17 28 30.15 1021 8 12.87472 N/A
8:05 am 08:05 Cloudy 24 -4.4 15 -9.4 68 68 WNW 16 26 30.18 1022 8 12.87472 N/A
8:53 am 08:53 Cloudy with Light Snow 23 -5 16 -8.9 74 74 WNW 12 19 30.18 1022 3 4.82802 N/A
9:53 am 09:53 Cloudy with Light Snow 23 -5 15 -9.4 72 72 WNW 15 24 30.21 1023 6 9.65604 N/A
10:53 am 10:53 Windy with Snow Likely 24 -4.4 16 -8.9 71 71 NW 23 37 30.24 1024 2.5 4.02335 N/A
11:21 am 11:21 Mostly Cloudy 24 -4.4 11 -11.7 57 57 NNW 18 30 30.27 1025 9 14.48406 N/A
11:53 am 11:53 Cloudy 25 -3.9 8 -13.3 48 48 NNW 21 33 30.28 1026 10 16.0934 N/A
12:53 pm 12:53 Cloudy 25 -3.9 7 -13.9 46 46 NW 22 35 30.3 1026 9 14.48406 N/A
1:53 pm 13:53 Cloudy 25 -3.9 9 -12.8 50 50 NW 16 26 30.31 1026 10 16.0934 N/A
2:53 pm 14:53 Windy with Snow Likely 25 -3.9 11 -11.7 55 55 WNW 20 31 30.31 1026 9 14.48406 N/A
3:53 pm 15:53 Cloudy 24 -4.4 9 -12.8 52 52 NW 18 30 30.34 1027 10 16.0934 N/A
4:53 pm 16:53 Cloudy 24 -4.4 6 -14.4 46 46 WNW 21 33 30.35 1028 10 16.0934 N/A
5:53 pm 17:53 Mostly Cloudy 23 -5 10 -12.2 57 57 NW 12 19 30.37 1029 10 16.0934 N/A
6:53 pm 18:53 Clear 21 -6.1 5 -15 50 50 NW 8 13 30.4 1029 10 16.0934 N/A
7:53 pm 19:53 Clear 20 -6.7 5 -15 52 52 NW 9 15 30.42 1030 10 16.0934 N/A
8:53 pm 20:53 Cloudy 20 -6.7 7 -13.9 57 57 NW 8 13 30.44 1031 10 16.0934 N/A
9:53 pm 21:53 Cloudy 20 -6.7 7 -13.9 57 57 NNW 8 13 30.44 1031 10 16.0934 N/A
10:53 pm 22:53 Mostly Cloudy 19 -7.2 6 -14.4 57 57 N 7 11 30.45 1031 10 16.0934 N/A
11:53 pm 23:53 Cloudy 19 -7.2 7 -13.9 59 59 N 5 7 30.44 1031 10 16.0934 N/A

Powered by AerisWeather